owner,sensor,date,latitude,longitude,vertical_datum,mass_concentration_of_oxygen_in_sea_water,qcFlag 
SCCF RECON,ioos:station:SCCF:11:1,2016-12-01T00:00:00Z,26.4679,-82.0631,1.84,7.29,1111122 
SCCF RECON,ioos:station:SCCF:11:1,2016-12-01T01:00:00Z,26.4679,-82.0631,1.85,6.81,1111122 
SCCF RECON,ioos:station:SCCF:11:1,2016-12-01T02:00:00Z,26.4679,-82.0631,1.95,6.61,1111122 
SCCF RECON,ioos:station:SCCF:11:1,2016-12-01T03:00:00Z,26.4679,-82.0631,2.087,6.33,1111122 
SCCF RECON,ioos:station:SCCF:11:1,2016-12-01T04:00:00Z,26.4679,-82.0631,2.17,6.53,1111122 
SCCF RECON,ioos:station:SCCF:11:1,2016-12-01T05:00:00Z,26.4679,-82.0631,2.229,6.66,1111122 
SCCF RECON,ioos:station:SCCF:11:1,2016-12-01T06:00:00Z,26.4679,-82.0631,2.25,6.36,1111122 
SCCF RECON,ioos:station:SCCF:11:1,2016-12-01T07:00:00Z,26.4679,-82.0631,2.168,6.65,1111122 
SCCF RECON,ioos:station:SCCF:11:1,2016-12-01T08:00:00Z,26.4679,-82.0631,2.022,6.46,1111122 
SCCF RECON,ioos:station:SCCF:11:1,2016-12-01T09:00:00Z,26.4679,-82.0631,1.893,6.29,1111122 
SCCF RECON,ioos:station:SCCF:11:1,2016-12-01T10:00:00Z,26.4679,-82.0631,1.769,6.3,1111122 
SCCF RECON,ioos:station:SCCF:11:1,2016-12-01T11:00:00Z,26.4679,-82.0631,1.637,6.2,1111122 
SCCF RECON,ioos:station:SCCF:11:1,2016-12-01T12:00:00Z,26.4679,-82.0631,1.512,5.92,1111122 
SCCF RECON,ioos:station:SCCF:11:1,2016-12-01T13:00:00Z,26.4679,-82.0631,1.419,5.85,1111122 
SCCF RECON,ioos:station:SCCF:11:1,2016-12-01T14:00:00Z,26.4679,-82.0631,1.415,5.91,1111122 
SCCF RECON,ioos:station:SCCF:11:1,2016-12-01T15:00:00Z,26.4679,-82.0631,1.53,6.17,1111122 
SCCF RECON,ioos:station:SCCF:11:1,2016-12-01T16:00:00Z,26.4679,-82.0631,1.691,6.44,1111122 
SCCF RECON,ioos:station:SCCF:11:1,2016-12-01T17:00:00Z,26.4679,-82.0631,1.829,6.61,1111122 
SCCF RECON,ioos:station:SCCF:11:1,2016-12-01T18:00:00Z,26.4679,-82.0631,1.927,6.58,1111122 
SCCF RECON,ioos:station:SCCF:11:1,2016-12-01T19:00:00Z,26.4679,-82.0631,1.99,6.43,1111122 
SCCF RECON,ioos:station:SCCF:11:1,2016-12-01T20:00:00Z,26.4679,-82.0631,1.98,6.46,1111122 
SCCF RECON,ioos:station:SCCF:11:1,2016-12-01T21:00:00Z,26.4679,-82.0631,1.928,6.54,1111122 
SCCF RECON,ioos:station:SCCF:11:1,2016-12-01T22:00:00Z,26.4679,-82.0631,1.863,7.0,1111122 
SCCF RECON,ioos:station:SCCF:11:1,2016-12-01T23:00:00Z,26.4679,-82.0631,1.81,7.13,1111122 
SCCF RECON,ioos:station:SCCF:11:1,2016-12-02T00:00:00Z,26.4679,-82.0631,1.8,6.89,1111122 
SCCF RECON,ioos:station:SCCF:11:1,2016-12-02T01:00:00Z,26.4679,-82.0631,1.789,6.98,1111122 
SCCF RECON,ioos:station:SCCF:11:1,2016-12-02T02:00:00Z,26.4679,-82.0631,1.82,6.78,1111122 
SCCF RECON,ioos:station:SCCF:11:1,2016-12-02T03:00:00Z,26.4679,-82.0631,1.921,6.66,1111122 
SCCF RECON,ioos:station:SCCF:11:1,2016-12-02T04:00:00Z,26.4679,-82.0631,2.04,6.21,1111122 
SCCF RECON,ioos:station:SCCF:11:1,2016-12-02T05:00:00Z,26.4679,-82.0631,2.12,6.25,1111122 
SCCF RECON,ioos:station:SCCF:11:1,2016-12-02T06:00:00Z,26.4679,-82.0631,2.151,6.27,1111122 
SCCF RECON,ioos:station:SCCF:11:1,2016-12-02T07:00:00Z,26.4679,-82.0631,2.14,6.14,1111122 
SCCF RECON,ioos:station:SCCF:11:1,2016-12-02T08:00:00Z,26.4679,-82.0631,2.069,6.27,1111122 
SCCF RECON,ioos:station:SCCF:11:1,2016-12-02T09:00:00Z,26.4679,-82.0631,1.92,6.18,1111122 
SCCF RECON,ioos:station:SCCF:11:1,2016-12-02T10:00:00Z,26.4679,-82.0631,1.77,5.73,1111122 
SCCF RECON,ioos:station:SCCF:11:1,2016-12-02T11:00:00Z,26.4679,-82.0631,1.646,5.57,1111122 
SCCF RECON,ioos:station:SCCF:11:1,2016-12-02T12:00:00Z,26.4679,-82.0631,1.513,5.23,1111122 
SCCF RECON,ioos:station:SCCF:11:1,2016-12-02T13:00:00Z,26.4679,-82.0631,1.38,5.06,1111122 
SCCF RECON,ioos:station:SCCF:11:1,2016-12-02T14:00:00Z,26.4679,-82.0631,1.306,5.05,1111122 
SCCF RECON,ioos:station:SCCF:11:1,2016-12-02T15:00:00Z,26.4679,-82.0631,1.344,5.71,1111122 
SCCF RECON,ioos:station:SCCF:11:1,2016-12-02T16:00:00Z,26.4679,-82.0631,1.48,5.96,1111122 
SCCF RECON,ioos:station:SCCF:11:1,2016-12-02T17:00:00Z,26.4679,-82.0631,1.629,6.68,1111122 
SCCF RECON,ioos:station:SCCF:11:1,2016-12-02T18:00:00Z,26.4679,-82.0631,1.731,6.89,1111122 
SCCF RECON,ioos:station:SCCF:11:1,2016-12-02T19:00:00Z,26.4679,-82.0631,1.818,7.06,1111122 
SCCF RECON,ioos:station:SCCF:11:1,2016-12-02T20:00:00Z,26.4679,-82.0631,1.871,6.94,1111122 
SCCF RECON,ioos:station:SCCF:11:1,2016-12-02T21:00:00Z,26.4679,-82.0631,1.877,6.98,1111122 
SCCF RECON,ioos:station:SCCF:11:1,2016-12-02T22:00:00Z,26.4679,-82.0631,1.833,6.82,1111122 
SCCF RECON,ioos:station:SCCF:11:1,2016-12-02T23:00:00Z,26.4679,-82.0631,1.78,6.15,1111122 
SCCF RECON,ioos:station:SCCF:11:1,2016-12-03T00:00:00Z,26.4679,-82.0631,1.73,6.83,1111122 
SCCF RECON,ioos:station:SCCF:11:1,2016-12-03T01:00:00Z,26.4679,-82.0631,1.71,6.77,1111122 
SCCF RECON,ioos:station:SCCF:11:1,2016-12-03T02:00:00Z,26.4679,-82.0631,1.75,6.51,1111122 
SCCF RECON,ioos:station:SCCF:11:1,2016-12-03T03:00:00Z,26.4679,-82.0631,1.818,6.66,1111122 
SCCF RECON,ioos:station:SCCF:11:1,2016-12-03T04:00:00Z,26.4679,-82.0631,1.912,6.49,1111122 
SCCF RECON,ioos:station:SCCF:11:1,2016-12-03T05:00:00Z,26.4679,-82.0631,1.986,6.38,1111122 
SCCF RECON,ioos:station:SCCF:11:1,2016-12-03T06:00:00Z,26.4679,-82.0631,2.0,6.31,1111122 
SCCF RECON,ioos:station:SCCF:11:1,2016-12-03T07:00:00Z,26.4679,-82.0631,1.987,6.27,1111122 
SCCF RECON,ioos:station:SCCF:11:1,2016-12-03T08:00:00Z,26.4679,-82.0631,1.943,6.19,1111122 
SCCF RECON,ioos:station:SCCF:11:1,2016-12-03T09:00:00Z,26.4679,-82.0631,1.856,6.14,1111122 
SCCF RECON,ioos:station:SCCF:11:1,2016-12-03T10:00:00Z,26.4679,-82.0631,1.756,6.28,1111122 
SCCF RECON,ioos:station:SCCF:11:1,2016-12-03T11:00:00Z,26.4679,-82.0631,1.629,6.07,1111122 
SCCF RECON,ioos:station:SCCF:11:1,2016-12-03T12:00:00Z,26.4679,-82.0631,1.498,5.91,1111122 
SCCF RECON,ioos:station:SCCF:11:1,2016-12-03T13:00:00Z,26.4679,-82.0631,1.387,5.96,1111122 
SCCF RECON,ioos:station:SCCF:11:1,2016-12-03T14:00:00Z,26.4679,-82.0631,1.297,5.77,1111122 
SCCF RECON,ioos:station:SCCF:11:1,2016-12-03T15:00:00Z,26.4679,-82.0631,1.29,6.82,1111122 
SCCF RECON,ioos:station:SCCF:11:1,2016-12-03T16:00:00Z,26.4679,-82.0631,1.388,6.47,1111122 
SCCF RECON,ioos:station:SCCF:11:1,2016-12-03T17:00:00Z,26.4679,-82.0631,1.52,7.27,1111122 
SCCF RECON,ioos:station:SCCF:11:1,2016-12-03T18:00:00Z,26.4679,-82.0631,1.62,7.41,1111122 
SCCF RECON,ioos:station:SCCF:11:1,2016-12-03T19:00:00Z,26.4679,-82.0631,1.719,7.66,1111122 
SCCF RECON,ioos:station:SCCF:11:1,2016-12-03T20:00:00Z,26.4679,-82.0631,1.82,7.56,1111122 
SCCF RECON,ioos:station:SCCF:11:1,2016-12-03T21:00:00Z,26.4679,-82.0631,1.877,7.09,1111122 
SCCF RECON,ioos:station:SCCF:11:1,2016-12-03T22:00:00Z,26.4679,-82.0631,1.882,7.14,1111122 
SCCF RECON,ioos:station:SCCF:11:1,2016-12-03T23:00:00Z,26.4679,-82.0631,1.859,7.12,1111122 
SCCF RECON,ioos:station:SCCF:11:1,2016-12-04T00:00:00Z,26.4679,-82.0631,1.81,6.76,1111122 
SCCF RECON,ioos:station:SCCF:11:1,2016-12-04T01:00:00Z,26.4679,-82.0631,1.77,6.78,1111122 
SCCF RECON,ioos:station:SCCF:11:1,2016-12-04T02:00:00Z,26.4679,-82.0631,1.752,7.09,1111122 
SCCF RECON,ioos:station:SCCF:11:1,2016-12-04T03:00:00Z,26.4679,-82.0631,1.79,6.51,1111122 
SCCF RECON,ioos:station:SCCF:11:1,2016-12-04T04:00:00Z,26.4679,-82.0631,1.88,6.97,1111122 
SCCF RECON,ioos:station:SCCF:11:1,2016-12-04T05:00:00Z,26.4679,-82.0631,1.96,7.06,1111122 
SCCF RECON,ioos:station:SCCF:11:1,2016-12-04T06:00:00Z,26.4679,-82.0631,2.008,6.77,1111122 
SCCF RECON,ioos:station:SCCF:11:1,2016-12-04T07:00:00Z,26.4679,-82.0631,2.03,6.69,1111122 
SCCF RECON,ioos:station:SCCF:11:1,2016-12-04T08:00:00Z,26.4679,-82.0631,2.04,6.52,1111122 
SCCF RECON,ioos:station:SCCF:11:1,2016-12-04T09:00:00Z,26.4679,-82.0631,2.0,6.69,1111122 
SCCF RECON,ioos:station:SCCF:11:1,2016-12-04T10:00:00Z,26.4679,-82.0631,1.928,6.61,1111122 
SCCF RECON,ioos:station:SCCF:11:1,2016-12-04T11:00:00Z,26.4679,-82.0631,1.85,6.42,1111122 
SCCF RECON,ioos:station:SCCF:11:1,2016-12-04T12:00:00Z,26.4679,-82.0631,1.745,6.28,1111122 
SCCF RECON,ioos:station:SCCF:11:1,2016-12-04T13:00:00Z,26.4679,-82.0631,1.648,6.26,1111122 
SCCF RECON,ioos:station:SCCF:11:1,2016-12-04T14:00:00Z,26.4679,-82.0631,1.55,6.23,1111122 
SCCF RECON,ioos:station:SCCF:11:1,2016-12-04T15:00:00Z,26.4679,-82.0631,1.476,6.37,1111122 
SCCF RECON,ioos:station:SCCF:11:1,2016-12-04T16:00:00Z,26.4679,-82.0631,1.48,6.69,1111122 
SCCF RECON,ioos:station:SCCF:11:1,2016-12-04T17:00:00Z,26.4679,-82.0631,1.578,6.85,1111122 
SCCF RECON,ioos:station:SCCF:11:1,2016-12-04T18:00:00Z,26.4679,-82.0631,1.72,7.45,1111122 
SCCF RECON,ioos:station:SCCF:11:1,2016-12-04T19:00:00Z,26.4679,-82.0631,1.819,7.61,1111122 
SCCF RECON,ioos:station:SCCF:11:1,2016-12-04T20:00:00Z,26.4679,-82.0631,1.914,7.28,1111122 
SCCF RECON,ioos:station:SCCF:11:1,2016-12-04T21:00:00Z,26.4679,-82.0631,1.99,7.19,1111122 
SCCF RECON,ioos:station:SCCF:11:1,2016-12-04T22:00:00Z,26.4679,-82.0631,2.0,7.06,1111122 
SCCF RECON,ioos:station:SCCF:11:1,2016-12-04T23:00:00Z,26.4679,-82.0631,1.994,7.07,1111122 
SCCF RECON,ioos:station:SCCF:11:1,2016-12-05T00:00:00Z,26.4679,-82.0631,1.96,7.48,1111122 
SCCF RECON,ioos:station:SCCF:11:1,2016-12-05T01:00:00Z,26.4679,-82.0631,1.92,7.58,1111122 
SCCF RECON,ioos:station:SCCF:11:1,2016-12-05T02:00:00Z,26.4679,-82.0631,1.88,7.65,1111122 
SCCF RECON,ioos:station:SCCF:11:1,2016-12-05T03:00:00Z,26.4679,-82.0631,1.9,6.93,1111122 
SCCF RECON,ioos:station:SCCF:11:1,2016-12-05T04:00:00Z,26.4679,-82.0631,1.93,6.62,1111122 
SCCF RECON,ioos:station:SCCF:11:1,2016-12-05T05:00:00Z,26.4679,-82.0631,1.96,6.86,1111122 
SCCF RECON,ioos:station:SCCF:11:1,2016-12-05T06:00:00Z,26.4679,-82.0631,2.02,7.0,1111122 
SCCF RECON,ioos:station:SCCF:11:1,2016-12-05T07:00:00Z,26.4679,-82.0631,2.08,6.67,1111122 
SCCF RECON,ioos:station:SCCF:11:1,2016-12-05T08:00:00Z,26.4679,-82.0631,2.1,6.83,1111122 
SCCF RECON,ioos:station:SCCF:11:1,2016-12-05T09:00:00Z,26.4679,-82.0631,2.09,6.72,1111122 
SCCF RECON,ioos:station:SCCF:11:1,2016-12-05T10:00:00Z,26.4679,-82.0631,2.06,6.65,1111122 
SCCF RECON,ioos:station:SCCF:11:1,2016-12-05T11:00:00Z,26.4679,-82.0631,1.974,6.5,1111122 
SCCF RECON,ioos:station:SCCF:11:1,2016-12-05T12:00:00Z,26.4679,-82.0631,1.867,6.5,1111122 
SCCF RECON,ioos:station:SCCF:11:1,2016-12-05T13:00:00Z,26.4679,-82.0631,1.74,6.35,1111122 
SCCF RECON,ioos:station:SCCF:11:1,2016-12-05T14:00:00Z,26.4679,-82.0631,1.628,6.41,1111122 
SCCF RECON,ioos:station:SCCF:11:1,2016-12-05T15:00:00Z,26.4679,-82.0631,1.531,6.47,1111122 
SCCF RECON,ioos:station:SCCF:11:1,2016-12-05T16:00:00Z,26.4679,-82.0631,1.501,6.67,1111122 
SCCF RECON,ioos:station:SCCF:11:1,2016-12-05T17:00:00Z,26.4679,-82.0631,1.54,6.72,1111122 
SCCF RECON,ioos:station:SCCF:11:1,2016-12-05T18:00:00Z,26.4679,-82.0631,1.63,7.25,1111122 
SCCF RECON,ioos:station:SCCF:11:1,2016-12-05T19:00:00Z,26.4679,-82.0631,1.735,7.31,1111122 
SCCF RECON,ioos:station:SCCF:11:1,2016-12-05T20:00:00Z,26.4679,-82.0631,1.83,7.45,1111122 
SCCF RECON,ioos:station:SCCF:11:1,2016-12-05T21:00:00Z,26.4679,-82.0631,1.936,7.32,1111122 
SCCF RECON,ioos:station:SCCF:11:1,2016-12-05T22:00:00Z,26.4679,-82.0631,2.002,7.3,1111122 
SCCF RECON,ioos:station:SCCF:11:1,2016-12-05T23:00:00Z,26.4679,-82.0631,2.02,7.14,1111122 
SCCF RECON,ioos:station:SCCF:11:1,2016-12-06T00:00:00Z,26.4679,-82.0631,2.03,7.15,1111122 
SCCF RECON,ioos:station:SCCF:11:1,2016-12-06T01:00:00Z,26.4679,-82.0631,2.01,7.03,1111122 
SCCF RECON,ioos:station:SCCF:11:1,2016-12-06T02:00:00Z,26.4679,-82.0631,1.96,7.07,1111122 
SCCF RECON,ioos:station:SCCF:11:1,2016-12-06T03:00:00Z,26.4679,-82.0631,1.92,6.74,1111122 
SCCF RECON,ioos:station:SCCF:11:1,2016-12-06T04:00:00Z,26.4679,-82.0631,1.927,6.95,1111122 
SCCF RECON,ioos:station:SCCF:11:1,2016-12-06T05:00:00Z,26.4679,-82.0631,1.94,6.67,1111122 
SCCF RECON,ioos:station:SCCF:11:1,2016-12-06T06:00:00Z,26.4679,-82.0631,1.96,6.76,1111122 
SCCF RECON,ioos:station:SCCF:11:1,2016-12-06T07:00:00Z,26.4679,-82.0631,2.02,6.77,1111122 
SCCF RECON,ioos:station:SCCF:11:1,2016-12-06T08:00:00Z,26.4679,-82.0631,2.08,6.62,1111122 
SCCF RECON,ioos:station:SCCF:11:1,2016-12-06T09:00:00Z,26.4679,-82.0631,2.131,6.56,1111122 
SCCF RECON,ioos:station:SCCF:11:1,2016-12-06T10:00:00Z,26.4679,-82.0631,2.132,6.57,1111122 
SCCF RECON,ioos:station:SCCF:11:1,2016-12-06T11:00:00Z,26.4679,-82.0631,2.09,6.42,1111122 
SCCF RECON,ioos:station:SCCF:11:1,2016-12-06T12:00:00Z,26.4679,-82.0631,2.01,6.37,1111122 
SCCF RECON,ioos:station:SCCF:11:1,2016-12-06T13:00:00Z,26.4679,-82.0631,1.933,6.2,1111122 
SCCF RECON,ioos:station:SCCF:11:1,2016-12-06T14:00:00Z,26.4679,-82.0631,1.814,6.14,1111122 
SCCF RECON,ioos:station:SCCF:11:1,2016-12-06T15:00:00Z,26.4679,-82.0631,1.703,6.36,1111122 
SCCF RECON,ioos:station:SCCF:11:1,2016-12-06T16:00:00Z,26.4679,-82.0631,1.594,6.4,1111122 
SCCF RECON,ioos:station:SCCF:11:1,2016-12-06T17:00:00Z,26.4679,-82.0631,1.54,7.09,1111122 
SCCF RECON,ioos:station:SCCF:11:1,2016-12-06T18:00:00Z,26.4679,-82.0631,1.585,7.1,1111122 
SCCF RECON,ioos:station:SCCF:11:1,2016-12-06T19:00:00Z,26.4679,-82.0631,1.69,7.23,1111122 
SCCF RECON,ioos:station:SCCF:11:1,2016-12-06T20:00:00Z,26.4679,-82.0631,1.8,7.25,1111122 
SCCF RECON,ioos:station:SCCF:11:1,2016-12-06T21:00:00Z,26.4679,-82.0631,1.894,7.12,1111122 
SCCF RECON,ioos:station:SCCF:11:1,2016-12-06T22:00:00Z,26.4679,-82.0631,1.99,6.85,1111122 
SCCF RECON,ioos:station:SCCF:11:1,2016-12-06T23:00:00Z,26.4679,-82.0631,1.989,6.77,1111122 
SCCF RECON,ioos:station:SCCF:11:1,2016-12-07T00:00:00Z,26.4679,-82.0631,1.98,6.64,1111122 
SCCF RECON,ioos:station:SCCF:11:1,2016-12-07T01:00:00Z,26.4679,-82.0631,1.965,6.7,1111122 
SCCF RECON,ioos:station:SCCF:11:1,2016-12-07T02:00:00Z,26.4679,-82.0631,1.92,6.58,1111122 
SCCF RECON,ioos:station:SCCF:11:1,2016-12-07T03:00:00Z,26.4679,-82.0631,1.875,6.86,1111122 
SCCF RECON,ioos:station:SCCF:11:1,2016-12-07T04:00:00Z,26.4679,-82.0631,1.82,6.46,1111122 
SCCF RECON,ioos:station:SCCF:11:1,2016-12-07T05:00:00Z,26.4679,-82.0631,1.758,6.67,1111122 
SCCF RECON,ioos:station:SCCF:11:1,2016-12-07T06:00:00Z,26.4679,-82.0631,1.71,6.55,1111122 
SCCF RECON,ioos:station:SCCF:11:1,2016-12-07T07:00:00Z,26.4679,-82.0631,1.74,6.19,1111122 
SCCF RECON,ioos:station:SCCF:11:1,2016-12-07T08:00:00Z,26.4679,-82.0631,1.82,6.24,1111122 
SCCF RECON,ioos:station:SCCF:11:1,2016-12-07T09:00:00Z,26.4679,-82.0631,1.93,6.15,1111122 
SCCF RECON,ioos:station:SCCF:11:1,2016-12-07T10:00:00Z,26.4679,-82.0631,1.99,5.95,1111122 
SCCF RECON,ioos:station:SCCF:11:1,2016-12-07T11:00:00Z,26.4679,-82.0631,1.99,6.11,1111122 
SCCF RECON,ioos:station:SCCF:11:1,2016-12-07T12:00:00Z,26.4679,-82.0631,1.97,6.04,1111122 
SCCF RECON,ioos:station:SCCF:11:1,2016-12-07T13:00:00Z,26.4679,-82.0631,1.9,5.88,1111122 
SCCF RECON,ioos:station:SCCF:11:1,2016-12-07T14:00:00Z,26.4679,-82.0631,1.8,5.99,1111122 
SCCF RECON,ioos:station:SCCF:11:1,2016-12-07T15:00:00Z,26.4679,-82.0631,1.711,5.95,1111122 
SCCF RECON,ioos:station:SCCF:11:1,2016-12-07T16:00:00Z,26.4679,-82.0631,1.65,6.23,1111122 
SCCF RECON,ioos:station:SCCF:11:1,2016-12-07T17:00:00Z,26.4679,-82.0631,1.592,6.34,1111122 
SCCF RECON,ioos:station:SCCF:11:1,2016-12-07T18:00:00Z,26.4679,-82.0631,1.55,6.88,1111122 
SCCF RECON,ioos:station:SCCF:11:1,2016-12-07T19:00:00Z,26.4679,-82.0631,1.57,6.92,1111122 
SCCF RECON,ioos:station:SCCF:11:1,2016-12-07T20:00:00Z,26.4679,-82.0631,1.671,7.49,1111122 
SCCF RECON,ioos:station:SCCF:11:1,2016-12-07T21:00:00Z,26.4679,-82.0631,1.784,7.08,1111122 
SCCF RECON,ioos:station:SCCF:11:1,2016-12-07T22:00:00Z,26.4679,-82.0631,1.887,7.36,1111122 
SCCF RECON,ioos:station:SCCF:11:1,2016-12-07T23:00:00Z,26.4679,-82.0631,1.976,7.11,1111122 
SCCF RECON,ioos:station:SCCF:11:1,2016-12-08T00:00:00Z,26.4679,-82.0631,2.05,6.91,1111122 
SCCF RECON,ioos:station:SCCF:11:1,2016-12-08T01:00:00Z,26.4679,-82.0631,2.05,7.13,1111122 
SCCF RECON,ioos:station:SCCF:11:1,2016-12-08T02:00:00Z,26.4679,-82.0631,2.007,7.21,1111122 
SCCF RECON,ioos:station:SCCF:11:1,2016-12-08T03:00:00Z,26.4679,-82.0631,1.92,6.92,1111122 
SCCF RECON,ioos:station:SCCF:11:1,2016-12-08T04:00:00Z,26.4679,-82.0631,1.83,6.82,1111122 
SCCF RECON,ioos:station:SCCF:11:1,2016-12-08T05:00:00Z,26.4679,-82.0631,1.746,6.52,1111122 
SCCF RECON,ioos:station:SCCF:11:1,2016-12-08T06:00:00Z,26.4679,-82.0631,1.67,6.45,1111122 
SCCF RECON,ioos:station:SCCF:11:1,2016-12-08T07:00:00Z,26.4679,-82.0631,1.64,6.46,1111122 
SCCF RECON,ioos:station:SCCF:11:1,2016-12-08T08:00:00Z,26.4679,-82.0631,1.67,6.38,1111122 
SCCF RECON,ioos:station:SCCF:11:1,2016-12-08T09:00:00Z,26.4679,-82.0631,1.749,6.42,1111122 
SCCF RECON,ioos:station:SCCF:11:1,2016-12-08T10:00:00Z,26.4679,-82.0631,1.841,6.26,1111122 
SCCF RECON,ioos:station:SCCF:11:1,2016-12-08T11:00:00Z,26.4679,-82.0631,1.911,6.25,1111122 
SCCF RECON,ioos:station:SCCF:11:1,2016-12-08T12:00:00Z,26.4679,-82.0631,1.95,6.29,1111122 
SCCF RECON,ioos:station:SCCF:11:1,2016-12-08T13:00:00Z,26.4679,-82.0631,1.922,5.96,1111122 
SCCF RECON,ioos:station:SCCF:11:1,2016-12-08T14:00:00Z,26.4679,-82.0631,1.889,5.93,1111122 
SCCF RECON,ioos:station:SCCF:11:1,2016-12-08T15:00:00Z,26.4679,-82.0631,1.833,5.94,1111122 
SCCF RECON,ioos:station:SCCF:11:1,2016-12-08T16:00:00Z,26.4679,-82.0631,1.75,6.03,1111122 
SCCF RECON,ioos:station:SCCF:11:1,2016-12-08T17:00:00Z,26.4679,-82.0631,1.691,6.15,1111122 
SCCF RECON,ioos:station:SCCF:11:1,2016-12-08T18:00:00Z,26.4679,-82.0631,1.625,6.34,1111122 
SCCF RECON,ioos:station:SCCF:11:1,2016-12-08T19:00:00Z,26.4679,-82.0631,1.569,6.56,1111122 
SCCF RECON,ioos:station:SCCF:11:1,2016-12-08T20:00:00Z,26.4679,-82.0631,1.548,6.74,1111122 
SCCF RECON,ioos:station:SCCF:11:1,2016-12-08T21:00:00Z,26.4679,-82.0631,1.621,6.87,1111122 
SCCF RECON,ioos:station:SCCF:11:1,2016-12-08T22:00:00Z,26.4679,-82.0631,1.77,6.87,1111122 
SCCF RECON,ioos:station:SCCF:11:1,2016-12-08T23:00:00Z,26.4679,-82.0631,1.869,6.71,1111122 
SCCF RECON,ioos:station:SCCF:11:1,2016-12-09T00:00:00Z,26.4679,-82.0631,1.96,6.7,1111122 
SCCF RECON,ioos:station:SCCF:11:1,2016-12-09T01:00:00Z,26.4679,-82.0631,2.01,6.41,1111122 
SCCF RECON,ioos:station:SCCF:11:1,2016-12-09T02:00:00Z,26.4679,-82.0631,2.03,6.37,1111122 
SCCF RECON,ioos:station:SCCF:11:1,2016-12-09T03:00:00Z,26.4679,-82.0631,1.947,6.46,1111122 
SCCF RECON,ioos:station:SCCF:11:1,2016-12-09T04:00:00Z,26.4679,-82.0631,1.86,6.5,1111122 
SCCF RECON,ioos:station:SCCF:11:1,2016-12-09T05:00:00Z,26.4679,-82.0631,1.77,6.4,1111122 
SCCF RECON,ioos:station:SCCF:11:1,2016-12-09T06:00:00Z,26.4679,-82.0631,1.651,6.24,1111122 
SCCF RECON,ioos:station:SCCF:11:1,2016-12-09T07:00:00Z,26.4679,-82.0631,1.546,6.09,1111122 
SCCF RECON,ioos:station:SCCF:11:1,2016-12-09T08:00:00Z,26.4679,-82.0631,1.468,6.1,1111122 
SCCF RECON,ioos:station:SCCF:11:1,2016-12-09T09:00:00Z,26.4679,-82.0631,1.488,5.92,1111122 
SCCF RECON,ioos:station:SCCF:11:1,2016-12-09T10:00:00Z,26.4679,-82.0631,1.56,6.2,1111122 
SCCF RECON,ioos:station:SCCF:11:1,2016-12-09T11:00:00Z,26.4679,-82.0631,1.661,6.25,1111122 
SCCF RECON,ioos:station:SCCF:11:1,2016-12-09T12:00:00Z,26.4679,-82.0631,1.77,6.29,1111122 
SCCF RECON,ioos:station:SCCF:11:1,2016-12-09T13:00:00Z,26.4679,-82.0631,1.84,6.33,1111122 
SCCF RECON,ioos:station:SCCF:11:1,2016-12-09T14:00:00Z,26.4679,-82.0631,1.891,6.69,1111122 
SCCF RECON,ioos:station:SCCF:11:1,2016-12-09T15:00:00Z,26.4679,-82.0631,1.84,6.5,1111122 
SCCF RECON,ioos:station:SCCF:11:1,2016-12-09T16:00:00Z,26.4679,-82.0631,1.788,6.74,1111122 
SCCF RECON,ioos:station:SCCF:11:1,2016-12-09T17:00:00Z,26.4679,-82.0631,1.696,6.84,1111122 
SCCF RECON,ioos:station:SCCF:11:1,2016-12-09T18:00:00Z,26.4679,-82.0631,1.597,7.23,1111122 
SCCF RECON,ioos:station:SCCF:11:1,2016-12-09T19:00:00Z,26.4679,-82.0631,1.514,7.47,1111122 
SCCF RECON,ioos:station:SCCF:11:1,2016-12-09T20:00:00Z,26.4679,-82.0631,1.504,7.44,1111122 
SCCF RECON,ioos:station:SCCF:11:1,2016-12-09T21:00:00Z,26.4679,-82.0631,1.568,7.56,1111122 
SCCF RECON,ioos:station:SCCF:11:1,2016-12-09T22:00:00Z,26.4679,-82.0631,1.699,7.52,1111122 
SCCF RECON,ioos:station:SCCF:11:1,2016-12-09T23:00:00Z,26.4679,-82.0631,1.822,7.43,1111122 
SCCF RECON,ioos:station:SCCF:11:1,2016-12-10T00:00:00Z,26.4679,-82.0631,1.929,7.34,1111122 
SCCF RECON,ioos:station:SCCF:11:1,2016-12-10T01:00:00Z,26.4679,-82.0631,1.998,7.18,1111122 
SCCF RECON,ioos:station:SCCF:11:1,2016-12-10T02:00:00Z,26.4679,-82.0631,1.992,7.13,1111122 
SCCF RECON,ioos:station:SCCF:11:1,2016-12-10T03:00:00Z,26.4679,-82.0631,1.932,6.97,1111122 
SCCF RECON,ioos:station:SCCF:11:1,2016-12-10T04:00:00Z,26.4679,-82.0631,1.855,6.97,1111122 
SCCF RECON,ioos:station:SCCF:11:1,2016-12-10T05:00:00Z,26.4679,-82.0631,1.748,6.92,1111122 
SCCF RECON,ioos:station:SCCF:11:1,2016-12-10T06:00:00Z,26.4679,-82.0631,1.653,6.8,1111122 
SCCF RECON,ioos:station:SCCF:11:1,2016-12-10T07:00:00Z,26.4679,-82.0631,1.546,6.79,1111122 
SCCF RECON,ioos:station:SCCF:11:1,2016-12-10T08:00:00Z,26.4679,-82.0631,1.445,6.74,1111122 
SCCF RECON,ioos:station:SCCF:11:1,2016-12-10T09:00:00Z,26.4679,-82.0631,1.384,6.69,1111122 
SCCF RECON,ioos:station:SCCF:11:1,2016-12-10T10:00:00Z,26.4679,-82.0631,1.391,6.5,1111122 
SCCF RECON,ioos:station:SCCF:11:1,2016-12-10T11:00:00Z,26.4679,-82.0631,1.499,6.84,1111122 
SCCF RECON,ioos:station:SCCF:11:1,2016-12-10T12:00:00Z,26.4679,-82.0631,1.649,6.84,1111122 
SCCF RECON,ioos:station:SCCF:11:1,2016-12-10T13:00:00Z,26.4679,-82.0631,1.76,6.97,1111122 
SCCF RECON,ioos:station:SCCF:11:1,2016-12-10T14:00:00Z,26.4679,-82.0631,1.835,7.07,1111122 
SCCF RECON,ioos:station:SCCF:11:1,2016-12-10T15:00:00Z,26.4679,-82.0631,1.899,7.11,1111122 
SCCF RECON,ioos:station:SCCF:11:1,2016-12-10T16:00:00Z,26.4679,-82.0631,1.873,7.27,1111122 
SCCF RECON,ioos:station:SCCF:11:1,2016-12-10T17:00:00Z,26.4679,-82.0631,1.794,7.35,1111122 
SCCF RECON,ioos:station:SCCF:11:1,2016-12-10T18:00:00Z,26.4679,-82.0631,1.7,7.44,1111122 
SCCF RECON,ioos:station:SCCF:11:1,2016-12-10T19:00:00Z,26.4679,-82.0631,1.645,7.77,1111122 
SCCF RECON,ioos:station:SCCF:11:1,2016-12-10T20:00:00Z,26.4679,-82.0631,1.63,7.93,1111122 
SCCF RECON,ioos:station:SCCF:11:1,2016-12-10T21:00:00Z,26.4679,-82.0631,1.621,7.79,1111122 
SCCF RECON,ioos:station:SCCF:11:1,2016-12-10T22:00:00Z,26.4679,-82.0631,1.691,7.96,1111122 
SCCF RECON,ioos:station:SCCF:11:1,2016-12-10T23:00:00Z,26.4679,-82.0631,1.824,7.7,1111122 
SCCF RECON,ioos:station:SCCF:11:1,2016-12-11T00:00:00Z,26.4679,-82.0631,1.97,7.63,1111122 
SCCF RECON,ioos:station:SCCF:11:1,2016-12-11T01:00:00Z,26.4679,-82.0631,2.048,7.7,1111122 
SCCF RECON,ioos:station:SCCF:11:1,2016-12-11T02:00:00Z,26.4679,-82.0631,2.092,7.41,1111122 
SCCF RECON,ioos:station:SCCF:11:1,2016-12-11T03:00:00Z,26.4679,-82.0631,2.114,7.38,1111122 
SCCF RECON,ioos:station:SCCF:11:1,2016-12-11T04:00:00Z,26.4679,-82.0631,2.09,7.23,1111122 
SCCF RECON,ioos:station:SCCF:11:1,2016-12-11T05:00:00Z,26.4679,-82.0631,1.96,7.32,1111122 
SCCF RECON,ioos:station:SCCF:11:1,2016-12-11T06:00:00Z,26.4679,-82.0631,1.812,7.19,1111122 
SCCF RECON,ioos:station:SCCF:11:1,2016-12-11T07:00:00Z,26.4679,-82.0631,1.669,7.13,1111122 
SCCF RECON,ioos:station:SCCF:11:1,2016-12-11T08:00:00Z,26.4679,-82.0631,1.537,7.06,1111122 
SCCF RECON,ioos:station:SCCF:11:1,2016-12-11T09:00:00Z,26.4679,-82.0631,1.435,6.97,1111122 
SCCF RECON,ioos:station:SCCF:11:1,2016-12-11T10:00:00Z,26.4679,-82.0631,1.388,6.99,1111122 
SCCF RECON,ioos:station:SCCF:11:1,2016-12-11T11:00:00Z,26.4679,-82.0631,1.47,6.85,1111122 
SCCF RECON,ioos:station:SCCF:11:1,2016-12-11T12:00:00Z,26.4679,-82.0631,1.633,7.05,1111122 
SCCF RECON,ioos:station:SCCF:11:1,2016-12-11T13:00:00Z,26.4679,-82.0631,1.773,7.05,1111122 
SCCF RECON,ioos:station:SCCF:11:1,2016-12-11T14:00:00Z,26.4679,-82.0631,1.87,7.09,1111122 
SCCF RECON,ioos:station:SCCF:11:1,2016-12-11T15:00:00Z,26.4679,-82.0631,1.959,7.28,1111122 
SCCF RECON,ioos:station:SCCF:11:1,2016-12-11T16:00:00Z,26.4679,-82.0631,2.037,7.43,1111122 
SCCF RECON,ioos:station:SCCF:11:1,2016-12-11T17:00:00Z,26.4679,-82.0631,2.051,7.26,1111122 
SCCF RECON,ioos:station:SCCF:11:1,2016-12-11T18:00:00Z,26.4679,-82.0631,1.998,7.3,1111122 
SCCF RECON,ioos:station:SCCF:11:1,2016-12-11T19:00:00Z,26.4679,-82.0631,1.9,7.45,1111122 
SCCF RECON,ioos:station:SCCF:11:1,2016-12-11T20:00:00Z,26.4679,-82.0631,1.831,7.87,1111122 